Weather History for Reno, NV

Change the Weather History Date:

Thursday, February 20, 2014

  Actual Average Record
Temperature  
Mean Temperature 42 °F 41 °F  
Max Temperature 58 °F 52 °F 72 °F (1982)
Min Temperature 25 °F 30 °F -6 °F (1990)
Degree Days  
Heating Degree Days 23 24  
Month to date heating degree days 423 518  
Since 1 July heating degree days 3444 3455  
Cooling Degree Days 0 0  
Month to date cooling degree days 0 0  
Year to date cooling degree days 0 0  
Moisture  
Dew Point 19 °F    
Average Humidity 44    
Maximum Humidity 69    
Minimum Humidity 18    
Precipitation  
Precipitation 0.00 in 0.04 in 0.67 in (1922)
Month to date precipitation 0.34 0.70  
Year to date precipitation 0.72 1.73  
Snow  
Snow 0.00 in 0.20 in 4.20 in (2010)
Month to date snowfall 1.1 3.5  
Since 1 July snowfall 6.2 17.5  
Snow Depth 0.00 in    
Sea Level Pressure  
Sea Level Pressure 30.21 in    
Wind  
Wind Speed 2 mph (ESE)    
Max Wind Speed 12 mph    
Max Gust Speed 15 mph    
Visibility 10 miles    
Events      
T = Trace of Precipitation, MM = Missing Value Source: NWS Daily Summary

Daily Weather History Graph

Daily Weather History Graph

Search for Another Location

Airport:

Trip Planner

Search our weather history database for the weather conditions in past years. The results will help you decide how hot, cold, wet, or windy it might be!

Date:

Astronomy

Feb. 20, 2014 Rise Set
Actual Time 6:44 AM PST 5:41 PM PST
Civil Twilight 6:17 AM PST 6:08 PM PST
Nautical Twilight 5:45 AM PST 6:40 PM PST
Astronomical Twilight 5:14 AM PST 7:11 PM PST
Moon 11:39 PM PST (2/20) 9:32 AM PST (2/20)
Length of Visible Light 11h 51m
Length of Day
10h 57m
Waning Gibbous, 70% of the Moon is Illuminated
Feb 20
Waning Gibbous
Feb 22
Last Quarter
Mar 1
New
Mar 8
First Quarter
Mar 16
Full

Hourly Weather History & Observations

Time (PST) Temp. Windchill Dew Point Humidity Pressure Visibility Wind Dir Wind Speed Gust Speed Precip Events Conditions
12:55 AM 32.0 °F - 18.0 °F 56% 30.22 in 10.0 mi Calm Calm - N/A   Partly Cloudy
1:55 AM 32.0 °F - 19.0 °F 59% 30.23 in 10.0 mi Calm Calm - N/A   Partly Cloudy
2:55 AM 28.0 °F - 18.0 °F 66% 30.25 in 10.0 mi Calm Calm - N/A   Partly Cloudy
3:55 AM 28.0 °F - 19.0 °F 69% 30.25 in 10.0 mi Calm Calm - N/A   Clear
4:55 AM 28.9 °F - 18.0 °F 64% 30.26 in 10.0 mi Calm Calm - N/A   Partly Cloudy
5:55 AM 26.1 °F 21.9 °F 18.0 °F 71% 30.28 in 10.0 mi SSW 3.5 mph - N/A   Clear
6:55 AM 26.1 °F - 17.1 °F 69% 30.30 in 10.0 mi Calm Calm - N/A   Scattered Clouds
7:55 AM 28.9 °F 25.2 °F 19.0 °F 67% 30.32 in 10.0 mi SSE 3.5 mph - N/A   Scattered Clouds
8:55 AM 33.1 °F - 19.0 °F 56% 30.31 in 10.0 mi Calm Calm - N/A   Mostly Cloudy
9:55 AM 37.0 °F - 18.0 °F 46% 30.29 in 10.0 mi Calm Calm - N/A   Mostly Cloudy
10:55 AM 43.0 °F 41.3 °F 18.0 °F 37% 30.27 in 10.0 mi Variable 3.5 mph - N/A   Overcast
11:55 AM 46.9 °F - 18.0 °F 32% 30.24 in 10.0 mi East 3.5 mph - N/A   Overcast
12:55 PM 50.0 °F - 17.1 °F 27% 30.18 in 10.0 mi Calm Calm - N/A   Mostly Cloudy
1:55 PM 54.0 °F - 17.1 °F 23% 30.14 in 10.0 mi Calm Calm - N/A   Mostly Cloudy
2:55 PM 55.9 °F - 12.9 °F 18% 30.11 in 10.0 mi Variable 3.5 mph - N/A   Mostly Cloudy
3:55 PM 55.9 °F - 18.0 °F 23% 30.12 in 10.0 mi Calm Calm - N/A   Mostly Cloudy
4:55 PM 55.0 °F - 17.1 °F 23% 30.10 in 10.0 mi ENE 5.8 mph - N/A   Scattered Clouds
5:55 PM 50.0 °F - 21.0 °F 32% 30.14 in 10.0 mi NE 9.2 mph - N/A   Scattered Clouds
6:55 PM 46.9 °F - 21.0 °F 36% 30.16 in 10.0 mi NE 6.9 mph - N/A   Scattered Clouds
7:55 PM 46.0 °F 43.1 °F 21.0 °F 37% 30.17 in 10.0 mi NE 5.8 mph - N/A   Scattered Clouds
8:55 PM 44.1 °F - 21.0 °F 40% 30.18 in 10.0 mi Calm Calm - N/A   Partly Cloudy
9:55 PM 42.1 °F - 19.9 °F 41% 30.18 in 10.0 mi Calm Calm - N/A   Scattered Clouds
10:55 PM 37.9 °F 35.5 °F 23.0 °F 55% 30.17 in 10.0 mi South 3.5 mph - N/A   Mostly Cloudy
11:55 PM 37.0 °F 33.3 °F 23.0 °F 57% 30.17 in 10.0 mi South 4.6 mph - N/A   Mostly Cloudy